TimeMDT,TemperatureF,Dew PointF,Humidity,Sea Level PressureIn,VisibilityMPH,Wind Direction,Wind SpeedMPH,Gust SpeedMPH,PrecipitationIn,Events,Conditions,WindDirDegrees,DateUTC
12:15 AM,65.5,59.5,81,29.80,10.0,Calm,Calm,-,N/A,,Clear,0,2013-09-18 06:15:00
12:35 AM,64.8,59.5,83,29.78,10.0,Calm,Calm,-,N/A,,Clear,0,2013-09-18 06:35:00
12:55 AM,64.2,59.4,84,29.78,10.0,Calm,Calm,-,N/A,,Clear,0,2013-09-18 06:55:00
1:15 AM,65.7,59.5,81,29.78,10.0,Calm,Calm,-,N/A,,Clear,0,2013-09-18 07:15:00
1:35 AM,65.3,59.4,81,29.79,10.0,Calm,Calm,-,N/A,,Clear,0,2013-09-18 07:35:00
1:55 AM,63.9,59.2,85,29.79,10.0,WNW,3.5,-,N/A,,Clear,290,2013-09-18 07:55:00
2:15 AM,64.6,59.4,83,29.78,10.0,SW,8.1,-,N/A,,Clear,230,2013-09-18 08:15:00
2:35 AM,63.5,59.2,86,29.78,10.0,SW,3.5,-,N/A,,Clear,230,2013-09-18 08:35:00
2:55 AM,63.3,59.2,86,29.78,10.0,SW,3.5,-,N/A,,Clear,230,2013-09-18 08:55:00
3:15 AM,62.6,59.0,88,29.78,10.0,SSE,3.5,-,N/A,,Clear,150,2013-09-18 09:15:00
3:35 AM,60.4,57.9,91,29.77,10.0,SSE,3.5,-,N/A,,Clear,150,2013-09-18 09:35:00
3:55 AM,61.2,59.0,93,29.77,10.0,Calm,Calm,-,N/A,,Clear,0,2013-09-18 09:55:00
4:15 AM,58.8,56.5,92,29.76,10.0,Calm,Calm,-,N/A,,Clear,0,2013-09-18 10:15:00
4:35 AM,59.0,56.8,93,29.76,10.0,Calm,Calm,-,N/A,,Clear,0,2013-09-18 10:35:00
4:55 AM,58.3,56.8,95,29.75,7.0,Calm,Calm,-,N/A,,Clear,0,2013-09-18 10:55:00
5:15 AM,56.8,55.4,95,29.75,7.0,Calm,Calm,-,N/A,,Clear,0,2013-09-18 11:15:00
5:35 AM,55.9,54.5,95,29.75,5.0,Calm,Calm,-,N/A,,Clear,0,2013-09-18 11:35:00
5:55 AM,55.6,54.1,95,29.75,7.0,Calm,Calm,-,N/A,,Clear,0,2013-09-18 11:55:00
6:15 AM,55.8,54.5,96,29.76,7.0,Calm,Calm,-,N/A,,Clear,0,2013-09-18 12:15:00
6:35 AM,55.6,54.1,95,29.76,7.0,Calm,Calm,-,N/A,,Clear,0,2013-09-18 12:35:00
6:55 AM,55.9,54.3,94,29.76,4.0,Calm,Calm,-,N/A,,Clear,0,2013-09-18 12:55:00
7:15 AM,56.7,55.2,95,29.77,4.0,Calm,Calm,-,N/A,,Clear,0,2013-09-18 13:15:00
7:35 AM,57.6,56.3,96,29.77,5.0,Calm,Calm,-,N/A,,Clear,0,2013-09-18 13:35:00
7:55 AM,60.3,58.6,94,29.77,-9999.0,Calm,Calm,-,0.03,,Unknown,0,2013-09-18 13:55:00
8:15 AM,62.4,59.7,91,29.77,-9999.0,Calm,Calm,-,N/A,,Unknown,0,2013-09-18 14:15:00
8:35 AM,64.4,61.3,90,29.77,10.0,West,3.5,-,N/A,,Clear,260,2013-09-18 14:35:00
8:55 AM,-9999,-9999,N/A,29.78,10.0,West,9.2,-,N/A,,Clear,260,2013-09-18 14:55:00
9:15 AM,-9999,-9999,N/A,29.78,10.0,WSW,3.5,-,N/A,,Clear,240,2013-09-18 15:15:00
9:35 AM,-9999,-9999,N/A,29.77,10.0,SSW,3.5,-,N/A,,Clear,210,2013-09-18 15:35:00
9:55 AM,73.0,62.1,68,29.76,10.0,Calm,Calm,-,N/A,,Clear,0,2013-09-18 15:55:00
10:15 AM,75.2,62.2,64,29.77,10.0,West,4.6,-,N/A,,Clear,260,2013-09-18 16:15:00
10:35 AM,77.5,62.1,59,29.76,10.0,Calm,Calm,-,N/A,,Clear,0,2013-09-18 16:35:00
10:55 AM,80.2,61.2,52,29.75,10.0,Calm,Calm,-,N/A,,Clear,0,2013-09-18 16:55:00
11:15 AM,82.2,60.8,48,29.75,10.0,East,4.6,-,N/A,,Clear,100,2013-09-18 17:15:00
11:35 AM,84.4,61.2,45,29.75,10.0,ESE,4.6,-,N/A,,Clear,120,2013-09-18 17:35:00
11:55 AM,85.3,60.6,43,29.75,10.0,ENE,3.5,-,N/A,,Clear,70,2013-09-18 17:55:00
12:15 PM,88.2,54.5,32,29.75,10.0,NNE,5.8,-,N/A,,Clear,20,2013-09-18 18:15:00
12:35 PM,90.3,52.3,27,29.74,10.0,North,5.8,-,N/A,,Clear,360,2013-09-18 18:35:00
12:55 PM,91.4,48.7,23,29.74,10.0,WNW,4.6,-,N/A,,Clear,290,2013-09-18 18:55:00
1:15 PM,91.4,51.4,26,29.73,10.0,Calm,Calm,-,N/A,,Clear,0,2013-09-18 19:15:00
1:35 PM,91.8,51.1,25,29.73,10.0,North,5.8,-,N/A,,Clear,350,2013-09-18 19:35:00
1:55 PM,92.5,47.8,22,29.72,10.0,Calm,Calm,-,N/A,,Clear,0,2013-09-18 19:55:00
2:15 PM,93.7,44.8,18,29.72,10.0,NNW,11.5,16.1,N/A,,Clear,330,2013-09-18 20:15:00
2:35 PM,93.4,44.6,19,29.72,5.0,NNW,4.6,-,N/A,,Haze,340,2013-09-18 20:35:00
2:55 PM,93.2,44.2,18,29.72,5.0,NW,5.8,-,N/A,,Haze,320,2013-09-18 20:55:00
3:15 PM,93.2,45.1,19,29.72,10.0,NW,3.5,-,N/A,,Clear,310,2013-09-18 21:15:00
3:35 PM,93.9,45.9,19,29.71,10.0,ENE,5.8,-,N/A,,Clear,70,2013-09-18 21:35:00
3:55 PM,93.6,47.3,20,29.71,10.0,North,6.9,-,N/A,,Clear,360,2013-09-18 21:55:00
4:15 PM,92.3,45.9,20,29.70,10.0,NNW,4.6,-,N/A,,Clear,340,2013-09-18 22:15:00
4:35 PM,90.9,50.4,25,29.70,10.0,Calm,Calm,-,N/A,,Clear,0,2013-09-18 22:35:00
4:55 PM,92.3,46.2,20,29.71,10.0,Calm,Calm,-,N/A,,Clear,0,2013-09-18 22:55:00
5:15 PM,90.9,48.7,23,29.70,10.0,SE,3.5,-,N/A,,Clear,140,2013-09-18 23:15:00
5:35 PM,90.1,49.8,25,29.70,10.0,Calm,Calm,-,N/A,,Clear,0,2013-09-18 23:35:00
5:55 PM,89.4,50.9,27,29.71,7.0,SSE,4.6,-,N/A,,Scattered Clouds,150,2013-09-18 23:55:00
6:15 PM,86.0,54.5,34,29.71,7.0,Calm,Calm,-,N/A,,Scattered Clouds,0,2013-09-19 00:15:00
6:35 PM,85.8,55.6,35,29.70,10.0,NNE,3.5,-,N/A,,Mostly Cloudy,20,2013-09-19 00:35:00
6:55 PM,82.6,58.6,44,29.71,10.0,SSE,3.5,-,N/A,,Mostly Cloudy,150,2013-09-19 00:55:00
7:15 PM,84.7,51.3,31,29.70,10.0,Calm,Calm,-,N/A,,Scattered Clouds,0,2013-09-19 01:15:00
7:35 PM,80.6,58.1,46,29.73,10.0,WNW,8.1,-,N/A,,Mostly Cloudy,300,2013-09-19 01:35:00
7:55 PM,79.2,51.1,37,29.73,10.0,NNW,13.8,-,N/A,,Scattered Clouds,340,2013-09-19 01:55:00
8:15 PM,80.1,49.8,35,29.75,10.0,NNW,5.8,-,N/A,Thunderstorm,Scattered Clouds,340,2013-09-19 02:15:00
8:35 PM,67.1,58.1,73,29.80,7.0,West,42.6,59.8,N/A,Rain-Thunderstorm,Light Thunderstorms and Rain,280,2013-09-19 02:35:00
8:55 PM,65.5,59.0,80,29.84,10.0,West,31.1,42.6,0.14,Rain,Light Rain,280,2013-09-19 02:55:00
9:15 PM,65.8,57.6,75,29.84,4.0,NW,31.1,40.3,0.10,Rain-Thunderstorm,Heavy Thunderstorms and Rain,320,2013-09-19 03:15:00
9:35 PM,65.8,57.2,74,29.85,10.0,NNW,25.3,33.4,0.13,Rain-Thunderstorm,Light Thunderstorms and Rain,330,2013-09-19 03:35:00
9:55 PM,65.3,57.6,76,29.89,10.0,NW,25.3,-,0.16,Rain-Thunderstorm,Heavy Thunderstorms and Rain,320,2013-09-19 03:55:00
10:15 PM,65.1,57.2,75,29.86,10.0,NW,20.7,33.4,0.02,Rain,Light Rain,320,2013-09-19 04:15:00
10:35 PM,64.4,57.0,77,29.82,10.0,NNW,24.2,33.4,0.03,Rain,Light Rain,340,2013-09-19 04:35:00
10:55 PM,64.4,57.4,78,29.79,10.0,NNW,25.3,29.9,0.05,Rain,Rain,340,2013-09-19 04:55:00
11:15 PM,68.0,55.4,64,29.79,10.0,NW,6.9,26.5,0.01,Rain-Thunderstorm,Rain,320,2013-09-19 05:15:00
11:35 PM,65.1,57.7,77,29.78,10.0,North,13.8,-,0.02,Rain,Light Rain,10,2013-09-19 05:35:00
11:55 PM,65.3,57.2,75,29.79,10.0,North,9.2,18.4,0.02,,Scattered Clouds,10,2013-09-19 05:55:00